Location: Newark
(42.7133°N, 87.7910°W)
Time: 14:54:48
(UTC+00:00)

Vanguard 1 - Pass Details

Date: 29 September 2019
Orbit: 653 x 3830 km, 34.3° (Epoch: 14 October)

Event Time Altitude Azimuth Distance (km) Brightness Sun altitude
Rises 02:41:46 0° 187° (S) 6,050 13.9 -33.1°
Enters shadow 02:43:52 - 182° (S) 5,801 13.7 -33.4°
Reaches altitude 10° 02:46:45 10° 173° (S) 5,532 - -33.9°
Maximum altitude 02:59:06 23° 129° (SE) 5,405 - -35.7°
Drops below altitude 10° 03:14:11 10° 88° (E) 6,930 - -37.9°
Exits shadow 03:18:49 - 80° (E) 7,562 14.3 -38.5°
Sets 03:21:28 0° 77° (ENE) 7,936 14.4 -38.9°
